Weather History for KCRP - November, 2012

Change the Weather History Date:

Monday, November 12, 2012

  Actual Average Record
Temperature  
Mean Temperature 66 °F 67 °F  
Max Temperature 75 °F 77 °F 91 °F (1969)
Min Temperature 56 °F 57 °F 37 °F (1907)
Degree Days  
Heating Degree Days 0 2  
Month to date heating degree days 0 19  
Since 1 July heating degree days 9 29  
Cooling Degree Days 1 4  
Month to date cooling degree days 121 66  
Year to date cooling degree days 4324 3417  
Growing Degree Days 16 (Base 50)    
Moisture  
Dew Point 41 °F    
Average Humidity 52    
Maximum Humidity 79    
Minimum Humidity 24    
Precipitation  
Precipitation T in 0.08 in 0.86 in (2001)
Month to date precipitation 0.37 0.99  
Year to date precipitation 18.57 28.95  
Snow  
Snow 0.00 in - - ()
Month to date snowfall 0.0  
Since 1 July snowfall 0.0  
Since 1 September snowfall 0.0  
Snow Depth 0.00 in    
Sea Level Pressure  
Sea Level Pressure 30.30 in    
Wind  
Wind Speed 18 mph (NNE)    
Max Wind Speed 29 mph    
Max Gust Speed 36 mph    
Visibility 10 miles    
Events Rain    
T = Trace of Precipitation, MM = Missing Value Source: NWS Daily Summary

Daily Weather History Graph

Daily Weather History Graph

Search for Another Location

Airport or City:

Trip Planner

Search our weather history database for the weather conditions in past years. The results will help you decide how hot, cold, wet, or windy it might be!

Date:

Astronomy

Nov. 12, 2012 Rise Set
Actual Time 6:49 AM CST 5:38 PM CST
Civil Twilight 6:24 AM CST 6:03 PM CST
Nautical Twilight 5:56 AM CST 6:31 PM CST
Astronomical Twilight 5:28 AM CST 6:59 PM CST
Moon 5:20 AM CST (11/12) 4:42 PM CST (11/12)
Length of Visible Light 11h 38m
Length of Day
10h 49m
Waning Crescent, 2% of the Moon is Illuminated
Nov 12
Waning Crescent
Nov 13
New
Nov 20
First Quarter
Nov 28
Full
Dec 6
Last Quarter

Hourly Weather History & Observations

Time (CST) Temp. Dew Point Humidity Pressure Visibility Wind Dir Wind Speed Gust Speed Precip Events Conditions
12:51 AM 75.0 °F 68.0 °F 79% 30.09 in 10.0 mi NNW 19.6 mph 25.3 mph N/A   Mostly Cloudy
1:30 AM 69.8 °F 55.4 °F 60% 30.12 in 10.0 mi NNE 25.3 mph 29.9 mph N/A   Overcast
1:51 AM 70.0 °F 53.1 °F 55% 30.12 in 10.0 mi NNE 19.6 mph 27.6 mph N/A   Overcast
2:15 AM 69.8 °F 48.2 °F 46% 30.12 in 10.0 mi NNE 21.9 mph 28.8 mph 0.00 in Rain Light Rain
2:51 AM 70.0 °F 48.9 °F 47% 30.13 in 10.0 mi NE 17.3 mph 24.2 mph 0.00 in   Mostly Cloudy
3:51 AM 69.1 °F 48.9 °F 49% 30.14 in 10.0 mi NNE 19.6 mph - N/A   Mostly Cloudy
4:51 AM 68.0 °F 46.0 °F 45% 30.17 in 10.0 mi North 15.0 mph - N/A   Overcast
5:51 AM 66.9 °F 48.9 °F 52% 30.20 in 10.0 mi NNE 19.6 mph 32.2 mph N/A   Overcast
6:51 AM 64.9 °F 48.9 °F 56% 30.25 in 10.0 mi NNE 20.7 mph 28.8 mph N/A   Mostly Cloudy
7:51 AM 64.0 °F 50.0 °F 60% 30.30 in 10.0 mi NE 23.0 mph 26.5 mph N/A   Mostly Cloudy
8:51 AM 64.0 °F 48.0 °F 56% 30.34 in 10.0 mi NNE 24.2 mph 31.1 mph N/A   Mostly Cloudy
9:51 AM 64.9 °F 45.0 °F 48% 30.37 in 10.0 mi NNE 19.6 mph 28.8 mph N/A   Mostly Cloudy
10:51 AM 68.0 °F 44.1 °F 42% 30.37 in 10.0 mi NNE 19.6 mph 27.6 mph N/A   Mostly Cloudy
11:51 AM 70.0 °F 41.0 °F 35% 30.35 in 10.0 mi NNE 18.4 mph - N/A   Mostly Cloudy
12:51 PM 70.0 °F 37.9 °F 31% 30.34 in 10.0 mi North 20.7 mph 29.9 mph N/A   Mostly Cloudy
1:51 PM 69.1 °F 36.0 °F 30% 30.33 in 10.0 mi NNE 19.6 mph - N/A   Scattered Clouds
2:51 PM 71.1 °F 32.0 °F 24% 30.34 in 10.0 mi NNE 19.6 mph 25.3 mph N/A   Scattered Clouds
3:51 PM 71.1 °F 33.1 °F 25% 30.34 in 10.0 mi NNE 17.3 mph - N/A   Scattered Clouds
4:51 PM 68.0 °F 30.9 °F 25% 30.35 in 10.0 mi NNE 15.0 mph - N/A   Partly Cloudy
5:51 PM 64.9 °F 30.9 °F 28% 30.36 in 10.0 mi North 13.8 mph - N/A   Scattered Clouds
6:51 PM 62.1 °F 34.0 °F 35% 30.37 in 10.0 mi North 10.4 mph - N/A   Scattered Clouds
7:51 PM 62.1 °F 32.0 °F 32% 30.38 in 10.0 mi North 12.7 mph - N/A   Partly Cloudy
8:51 PM 60.1 °F 32.0 °F 35% 30.41 in 10.0 mi North 15.0 mph - N/A   Partly Cloudy
9:51 PM 57.9 °F 34.0 °F 41% 30.42 in 10.0 mi North 13.8 mph - N/A   Partly Cloudy
10:51 PM 57.9 °F 32.0 °F 37% 30.41 in 10.0 mi North 16.1 mph - N/A   Partly Cloudy
11:51 PM 57.0 °F 32.0 °F 39% 30.41 in 10.0 mi NNE 18.4 mph 25.3 mph N/A   Partly Cloudy